Location: Newark
(48.6461°N, 4.3644°W)
Time: 19:30:35
(UTC+00:00)

Transit 4A - All Passes

Search period start: 24 January 2020 00:00
Search period end: 03 February 2020 00:00
Orbit: 871 x 973 km, 66.8° (Epoch: 24 January)

Date Brightness Start Highest point End Pass type
(mag) Time Alt. Az. Time Alt. Az. Time Alt. Az.
24 Jan - 05:57:26 10° SSE 06:02:00 23° ESE 06:06:29 10° ENE visible
24 Jan - 07:41:47 10° SW 07:47:48 74° NW 07:53:42 10° NNE daylight
24 Jan - 09:30:31 10° W 09:35:08 23° NNW 09:39:41 10° NNE daylight
24 Jan - 11:21:11 10° NNW 11:23:49 13° N 11:26:26 10° NNE daylight
24 Jan - 13:08:38 10° NNW 13:12:41 19° NNE 13:16:42 10° ENE daylight
24 Jan - 14:54:36 10° NNW 15:00:20 56° NE 15:06:05 10° SE daylight
24 Jan - 16:41:22 10° NW 16:46:25 31° WSW 16:51:28 10° S daylight
25 Jan - 06:05:49 10° S 06:11:06 33° ESE 06:16:17 10° NE visible
25 Jan - 07:51:19 10° SW 07:57:13 55° NW 08:02:59 10° NNE daylight
25 Jan - 09:40:47 10° WNW 09:44:53 19° NNW 09:48:57 10° NNE daylight
25 Jan - 11:31:07 10° NNW 11:33:45 13° N 11:36:21 10° NNE daylight
25 Jan - 13:17:54 10° NNW 13:22:26 22° NNE 13:26:57 10° E daylight
25 Jan - 15:03:54 10° NNW 15:09:45 76° NE 15:15:37 10° SE daylight
25 Jan - 16:51:12 10° WNW 16:55:30 22° WSW 16:59:48 10° SSW daylight
26 Jan - 06:14:33 10° S 06:20:15 46° ESE 06:25:52 10° NE visible
26 Jan - 08:01:04 10° WSW 08:06:42 41° NW 08:12:16 10° NNE daylight
26 Jan - 09:51:07 10° WNW 09:54:42 16° NNW 09:58:16 10° NNE daylight
26 Jan - 11:40:49 10° NNW 11:43:40 14° N 11:46:30 10° NE daylight
26 Jan - 13:27:09 10° NNW 13:32:07 28° NE 13:37:04 10° E daylight
26 Jan - 15:13:15 10° NW 15:19:06 79° WSW 15:24:57 10° SSE daylight
26 Jan - 17:01:28 10° WNW 17:04:30 15° WSW 17:07:32 10° SW daylight
27 Jan - 04:42:15 10° ESE 04:44:13 12° E 04:46:12 10° E visible
27 Jan - 06:23:32 10° SSW 06:29:29 66° ESE 06:35:20 10° NE visible
27 Jan - 08:10:58 10° WSW 08:16:16 32° NW 08:21:30 10° NNE daylight
27 Jan - 10:01:27 10° NW 10:04:34 14° NNW 10:07:39 10° NNE daylight
27 Jan - 11:50:18 10° NNW 11:53:33 15° NNE 11:56:47 10° NE daylight
27 Jan - 13:36:23 10° NNW 13:41:44 35° NE 13:47:03 10° ESE daylight
27 Jan - 15:22:40 10° NW 15:28:22 56° WSW 15:34:04 10° SSE daylight
28 Jan - 04:49:21 10° SE 04:53:12 18° ESE 04:57:02 10° ENE visible
28 Jan - 06:32:46 10° SSW 06:38:47 90° NW 06:44:42 10° NE visible
28 Jan - 08:21:02 10° W 08:25:55 26° NNW 08:30:45 10° NNE daylight
28 Jan - 10:11:42 10° NW 10:14:28 13° N 10:17:12 10° NNE daylight
28 Jan - 11:59:40 10° NNW 12:03:24 17° NNE 12:07:07 10° ENE daylight
28 Jan - 13:45:39 10° NNW 13:51:16 46° NE 13:56:53 10° ESE daylight
28 Jan - 15:32:11 10° NW 15:37:33 39° WSW 15:42:56 10° S daylight
29 Jan - 04:57:25 10° SSE 05:02:15 26° ESE 05:07:02 10° NE visible
29 Jan - 06:42:12 10° SW 06:48:10 67° NW 06:54:02 10° NNE visible
29 Jan - 08:31:13 10° WNW 08:35:37 21° NNW 08:39:59 10° NNE daylight
29 Jan - 10:21:48 10° NNW 10:24:23 13° N 10:26:57 10° NNE daylight
29 Jan - 12:08:58 10° NNW 12:13:11 20° NNE 12:17:24 10° ENE daylight
29 Jan - 13:54:56 10° NNW 14:00:43 62° NE 14:06:32 10° SE daylight
29 Jan - 15:41:52 10° NW 15:46:41 27° WSW 15:51:31 10° SSW daylight
30 Jan - 05:05:56 10° S 05:11:23 37° ESE 05:16:44 10° NE visible
30 Jan - 06:51:50 10° WSW 06:57:37 49° NW 07:03:19 10° NNE visible
30 Jan - 08:41:30 10° WNW 08:45:24 18° NNW 08:49:16 10° NNE daylight
30 Jan - 10:31:38 10° NNW 10:34:18 13° N 10:36:58 10° NNE daylight
30 Jan - 12:18:13 10° NNW 12:22:55 24° NNE 12:27:36 10° E daylight
30 Jan - 14:04:15 10° NW 14:10:07 84° NE 14:15:59 10° SE daylight
30 Jan - 15:51:48 10° WNW 15:55:44 19° WSW 15:59:41 10° SSW daylight
31 Jan - 05:14:46 10° SSW 05:20:33 53° ESE 05:26:16 10° NE visible
31 Jan - 07:01:37 10° WSW 07:07:08 37° NW 07:12:35 10° NNE visible
31 Jan - 08:51:51 10° NW 08:55:14 15° NNW 08:58:36 10° NNE daylight
31 Jan - 10:41:14 10° NNW 10:44:12 14° N 10:47:10 10° NE daylight
31 Jan - 12:27:28 10° NNW 12:32:34 30° NE 12:37:41 10° E daylight
31 Jan - 14:13:37 10° NW 14:19:25 70° WSW 14:25:15 10° SSE daylight
31 Jan - 16:02:25 10° WNW 16:04:43 12° WSW 16:07:00 10° SW daylight
01 Feb - 03:41:36 10° SE 03:44:27 14° ESE 03:47:16 10° ENE visible
01 Feb - 05:23:51 10° SSW 05:29:49 74° ESE 05:35:42 10° NE visible
01 Feb - 07:11:35 10° W 07:16:43 29° NW 07:21:49 10° NNE visible
01 Feb - 09:02:10 10° NW 09:05:07 14° N 09:08:03 10° NNE daylight
01 Feb - 10:50:41 10° NNW 10:54:05 16° NNE 10:57:29 10° NE daylight
01 Feb - 12:36:42 10° NNW 12:42:09 39° NE 12:47:36 10° ESE daylight
01 Feb - 14:23:04 10° NW 14:28:39 49° WSW 14:34:17 10° S daylight
02 Feb - 03:49:11 10° SSE 03:53:27 21° ESE 03:57:39 10° ENE visible
02 Feb - 05:33:09 10° SW 05:39:09 81° NW 05:45:03 10° NE visible
02 Feb - 07:21:41 10° W 07:26:23 24° NNW 07:31:03 10° NNE daylight
02 Feb - 09:12:22 10° NNW 09:15:01 13° N 09:17:40 10° NNE daylight
02 Feb - 11:00:01 10° NNW 11:03:55 18° NNE 11:07:49 10° ENE daylight
02 Feb - 12:45:58 10° NNW 12:51:40 51° NE 12:57:22 10° ESE daylight
02 Feb - 14:32:38 10° NW 14:37:50 34° WSW 14:43:04 10° S daylight
